Data No.,UTC Date,UTC Time,Latitude,Longitude,Course(deg),Temp(degC),Sal(psu)
868,2013/9/5,23:04:00,30-59.8100N,138-32.9300E,159,29.164,34.3106
869,2013/9/5,23:05:00,30-59.6000N,138-33.0200E,159,29.162,34.3112
870,2013/9/5,23:06:00,30-59.3900N,138-33.1100E,159,29.169,34.3135
871,2013/9/5,23:07:00,30-59.1800N,138-33.2000E,159,29.173,34.3166
872,2013/9/5,23:08:00,30-58.9500N,138-33.2900E,159,29.18,34.3219
873,2013/9/5,23:09:00,30-58.7400N,138-33.3900E,159,29.186,34.3265
874,2013/9/5,23:10:00,30-58.5300N,138-33.4800E,158,29.196,34.3315
875,2013/9/5,23:11:00,30-58.3200N,138-33.5700E,159,29.193,34.3332
876,2013/9/5,23:12:00,30-58.1100N,138-33.6600E,159,29.194,34.3339
877,2013/9/5,23:13:00,30-57.9000N,138-33.7500E,159,29.209,34.3367
878,2013/9/5,23:14:00,30-57.6900N,138-33.8400E,159,29.247,34.3421
879,2013/9/5,23:15:00,30-57.4800N,138-33.9300E,159,29.266,34.3596
880,2013/9/5,23:16:00,30-57.2600N,138-34.0200E,159,29.267,34.3678
881,2013/9/5,23:17:00,30-57.0500N,138-34.1100E,159,29.268,34.3654
882,2013/9/5,23:18:00,30-56.8400N,138-34.2000E,159,29.256,34.3551
883,2013/9/5,23:19:00,30-56.6300N,138-34.2900E,160,29.241,34.3446
884,2013/9/5,23:20:00,30-56.4200N,138-34.3700E,162,29.251,34.3336
885,2013/9/5,23:21:00,30-56.2100N,138-34.4400E,162,29.27,34.3303
886,2013/9/5,23:22:00,30-55.9900N,138-34.5200E,163,29.27,34.3353
887,2013/9/5,23:23:00,30-55.7800N,138-34.5900E,163,29.268,34.3366
888,2013/9/5,23:24:00,30-55.5600N,138-34.6700E,162,29.299,34.3382
889,2013/9/5,23:25:00,30-55.3500N,138-34.7400E,163,29.3,34.3521
890,2013/9/5,23:26:00,30-55.1400N,138-34.8200E,163,29.3,34.3492
891,2013/9/5,23:27:00,30-54.9200N,138-34.8900E,163,29.295,34.3419
892,2013/9/5,23:28:00,30-54.7100N,138-34.9700E,162,29.288,34.3336
893,2013/9/5,23:29:00,30-54.4800N,138-35.0500E,163,29.29,34.3174
894,2013/9/5,23:30:00,30-54.2600N,138-35.1200E,163,29.292,34.3016
895,2013/9/5,23:31:00,30-54.0500N,138-35.1900E,163,29.298,34.2901
896,2013/9/5,23:32:00,30-53.8400N,138-35.2700E,164,29.321,34.2826
897,2013/9/5,23:33:00,30-53.6200N,138-35.3400E,164,29.318,34.2919
898,2013/9/5,23:34:00,30-53.4100N,138-35.4000E,164,29.348,34.2932
899,2013/9/5,23:35:00,30-53.2000N,138-35.4700E,164,29.361,34.3072
900,2013/9/5,23:36:00,30-52.9800N,138-35.5400E,164,29.369,34.328
901,2013/9/5,23:37:00,30-52.7700N,138-35.6200E,162,29.379,34.3379
902,2013/9/5,23:38:00,30-52.5600N,138-35.7000E,161,29.353,34.3365
903,2013/9/5,23:39:00,30-52.3500N,138-35.7800E,160,29.32,34.3255
904,2013/9/5,23:40:00,30-52.1400N,138-35.8700E,160,29.32,34.3095
905,2013/9/5,23:41:00,30-51.9300N,138-35.9500E,160,29.305,34.3047
906,2013/9/5,23:42:00,30-51.7300N,138-36.0400E,160,29.361,34.3033
907,2013/9/5,23:43:00,30-51.5200N,138-36.1300E,159,29.355,34.3238
908,2013/9/5,23:44:00,30-51.3100N,138-36.2100E,159,29.364,34.3374
909,2013/9/5,23:45:00,30-51.1000N,138-36.3000E,159,29.364,34.3383
910,2013/9/5,23:46:00,30-50.9000N,138-36.3900E,159,29.364,34.3362
911,2013/9/5,23:47:00,30-50.6900N,138-36.4800E,160,29.37,34.3328
912,2013/9/5,23:48:00,30-50.4900N,138-36.5600E,160,29.377,34.3328
913,2013/9/5,23:49:00,30-50.2800N,138-36.6500E,160,29.373,34.339
914,2013/9/5,23:50:00,30-50.0600N,138-36.7400E,160,29.367,34.3343
915,2013/9/5,23:51:00,30-49.8500N,138-36.8200E,160,29.362,34.3262
916,2013/9/5,23:52:00,30-49.6500N,138-36.9100E,160,29.35,34.3166
917,2013/9/5,23:53:00,30-49.4500N,138-36.9900E,159,29.337,34.3126
918,2013/9/5,23:54:00,30-49.2400N,138-37.0800E,159,29.344,34.3088
919,2013/9/5,23:55:00,30-49.0400N,138-37.1700E,159,29.337,34.3054
920,2013/9/5,23:56:00,30-48.8300N,138-37.2600E,159,29.34,34.2921
921,2013/9/5,23:57:00,30-48.6300N,138-37.3500E,160,29.351,34.2778
922,2013/9/5,23:58:00,30-48.4200N,138-37.4300E,160,29.365,34.2698
923,2013/9/5,23:59:00,30-48.2200N,138-37.5200E,160,29.374,34.2785
924,2013/9/6,0:00:00,30-48.0100N,138-37.6100E,159,29.378,34.2916
925,2013/9/6,0:01:00,30-47.8000N,138-37.7000E,159,29.385,34.3012
926,2013/9/6,0:02:00,30-47.6000N,138-37.7900E,159,29.388,34.3077
927,2013/9/6,0:03:00,30-47.3800N,138-37.8800E,159,29.398,34.3081
928,2013/9/6,0:04:00,30-47.1700N,138-37.9700E,159,29.417,34.3095
929,2013/9/6,0:05:00,30-46.9600N,138-38.0600E,159,29.428,34.3098
930,2013/9/6,0:06:00,30-46.7500N,138-38.1500E,159,29.431,34.3132
931,2013/9/6,0:07:00,30-46.5400N,138-38.2500E,159,29.424,34.2953
932,2013/9/6,0:08:00,30-46.3300N,138-38.3300E,159,29.464,34.2784
933,2013/9/6,0:09:00,30-46.1200N,138-38.4300E,159,29.472,34.263
934,2013/9/6,0:10:00,30-45.9100N,138-38.5200E,159,29.48,34.2506
935,2013/9/6,0:11:00,30-45.6900N,138-38.6100E,159,29.495,34.2377
936,2013/9/6,0:12:00,30-45.4700N,138-38.7100E,159,29.498,34.2236
937,2013/9/6,0:13:00,30-45.2600N,138-38.8000E,159,29.503,34.2175
938,2013/9/6,0:14:00,30-45.0400N,138-38.8900E,159,29.501,34.2114
939,2013/9/6,0:15:00,30-44.8300N,138-38.9900E,158,29.503,34.2059
940,2013/9/6,0:16:00,30-44.6200N,138-39.0800E,158,29.524,34.1902
941,2013/9/6,0:17:00,30-44.4100N,138-39.1700E,158,29.545,34.1582
942,2013/9/6,0:18:00,30-44.2000N,138-39.2600E,160,29.541,34.1367
943,2013/9/6,0:19:00,30-43.9900N,138-39.3500E,159,29.57,34.1338
944,2013/9/6,0:20:00,30-43.7800N,138-39.4400E,159,29.595,34.1378
945,2013/9/6,0:21:00,30-43.5600N,138-39.5300E,160,29.588,34.1407
946,2013/9/6,0:22:00,30-43.3500N,138-39.6200E,159,29.56,34.141
947,2013/9/6,0:23:00,30-43.1300N,138-39.7200E,159,29.557,34.1385
948,2013/9/6,0:24:00,30-42.9200N,138-39.8100E,159,29.54,34.1401
949,2013/9/6,0:25:00,30-42.7000N,138-39.9000E,159,29.541,34.1392
950,2013/9/6,0:26:00,30-42.4900N,138-39.9900E,159,29.551,34.1345
951,2013/9/6,0:27:00,30-42.2700N,138-40.0900E,160,29.542,34.133
952,2013/9/6,0:28:00,30-42.0500N,138-40.1800E,160,29.525,34.1331
953,2013/9/6,0:29:00,30-41.8300N,138-40.2700E,160,29.496,34.1393
954,2013/9/6,0:30:00,30-41.6100N,138-40.3600E,160,29.457,34.1381
955,2013/9/6,0:31:00,30-41.3900N,138-40.4600E,160,29.427,34.1377
956,2013/9/6,0:32:00,30-41.1700N,138-40.5500E,159,29.419,34.123
957,2013/9/6,0:33:00,30-40.9400N,138-40.6500E,159,29.416,34.1115
958,2013/9/6,0:34:00,30-40.7200N,138-40.7400E,159,29.411,34.1051
959,2013/9/6,0:35:00,30-40.5000N,138-40.8300E,160,29.385,34.1009
960,2013/9/6,0:36:00,30-40.2900N,138-40.9200E,160,29.463,34.0978
961,2013/9/6,0:37:00,30-40.0700N,138-41.0100E,160,29.476,34.1085
962,2013/9/6,0:38:00,30-39.8500N,138-41.1000E,160,29.542,34.1599
963,2013/9/6,0:39:00,30-39.6300N,138-41.1900E,160,29.552,34.1801
964,2013/9/6,0:40:00,30-39.4100N,138-41.2800E,160,29.584,34.185
965,2013/9/6,0:41:00,30-39.2000N,138-41.3700E,160,29.591,34.1794
966,2013/9/6,0:42:00,30-38.9900N,138-41.4600E,160,29.625,34.1712
967,2013/9/6,0:43:00,30-38.7800N,138-41.5400E,160,29.618,34.1702
968,2013/9/6,0:44:00,30-38.5600N,138-41.6300E,160,29.626,34.1587
969,2013/9/6,0:45:00,30-38.3600N,138-41.7100E,160,29.606,34.1488
970,2013/9/6,0:46:00,30-38.1400N,138-41.8000E,160,29.618,34.1348
971,2013/9/6,0:47:00,30-37.9400N,138-41.8800E,160,29.652,34.1366
972,2013/9/6,0:48:00,30-37.7300N,138-41.9700E,160,29.648,34.149
973,2013/9/6,0:49:00,30-37.5200N,138-42.0500E,161,29.612,34.1643
974,2013/9/6,0:50:00,30-37.3100N,138-42.1300E,160,29.612,34.1709
975,2013/9/6,0:51:00,30-37.1100N,138-42.2200E,161,29.618,34.1688
976,2013/9/6,0:52:00,30-36.9000N,138-42.3000E,161,29.635,34.1713
977,2013/9/6,0:53:00,30-36.7000N,138-42.3700E,161,29.645,34.1733
978,2013/9/6,0:54:00,30-36.5000N,138-42.4500E,161,29.626,34.1769
979,2013/9/6,0:55:00,30-36.2800N,138-42.5400E,161,29.62,34.1818
980,2013/9/6,0:56:00,30-36.0800N,138-42.6200E,161,29.605,34.1811
981,2013/9/6,0:57:00,30-35.8800N,138-42.7000E,161,29.612,34.1775
982,2013/9/6,0:58:00,30-35.6800N,138-42.7800E,161,29.612,34.1782
983,2013/9/6,0:59:00,30-35.4800N,138-42.8500E,162,29.606,34.1814
984,2013/9/6,1:00:00,30-35.2800N,138-42.9200E,162,29.598,34.1796
985,2013/9/6,1:01:00,30-35.0800N,138-43.0000E,162,29.613,34.1774
986,2013/9/6,1:02:00,30-34.8900N,138-43.0700E,161,29.601,34.1769
987,2013/9/6,1:03:00,30-34.6900N,138-43.1500E,162,29.616,34.1747
988,2013/9/6,1:04:00,30-34.4900N,138-43.2200E,162,29.596,34.173
989,2013/9/6,1:05:00,30-34.3000N,138-43.2900E,163,29.597,34.1714
990,2013/9/6,1:06:00,30-34.1000N,138-43.3600E,162,29.619,34.1664
991,2013/9/6,1:07:00,30-33.9000N,138-43.4300E,162,29.627,34.1612
992,2013/9/6,1:08:00,30-33.7000N,138-43.5000E,163,29.589,34.1557
993,2013/9/6,1:09:00,30-33.5100N,138-43.5700E,163,29.568,34.1416
994,2013/9/6,1:10:00,30-33.3100N,138-43.6300E,163,29.539,34.1336
995,2013/9/6,1:11:00,30-33.1200N,138-43.7000E,163,29.544,34.1231
996,2013/9/6,1:12:00,30-32.9200N,138-43.7700E,164,29.534,34.1106
997,2013/9/6,1:13:00,30-32.7200N,138-43.8300E,164,29.525,34.1039
998,2013/9/6,1:14:00,30-32.5100N,138-43.9000E,164,29.519,34.0956
999,2013/9/6,1:15:00,30-32.3200N,138-43.9600E,164,29.486,34.0924
1000,2013/9/6,1:16:00,30-32.1000N,138-44.0300E,164,29.412,34.0888
1001,2013/9/6,1:17:00,30-31.9000N,138-44.0900E,164,29.409,34.0789
1002,2013/9/6,1:18:00,30-31.7100N,138-44.1600E,165,29.374,34.084
1003,2013/9/6,1:19:00,30-31.5000N,138-44.2200E,165,29.354,34.0845
1004,2013/9/6,1:20:00,30-31.3000N,138-44.2800E,164,29.329,34.0736
1005,2013/9/6,1:21:00,30-31.1000N,138-44.3400E,165,29.329,34.0764
1006,2013/9/6,1:22:00,30-30.9000N,138-44.4000E,165,29.348,34.1109
1007,2013/9/6,1:23:00,30-30.7000N,138-44.4700E,165,29.392,34.1218
1008,2013/9/6,1:24:00,30-30.5000N,138-44.5300E,165,29.412,34.1759
1009,2013/9/6,1:25:00,30-30.2900N,138-44.5900E,165,29.398,34.2332
1010,2013/9/6,1:26:00,30-30.0900N,138-44.6600E,164,29.618,34.2142
1011,2013/9/6,1:27:00,30-29.8900N,138-44.7200E,164,29.628,34.2677
1012,2013/9/6,1:28:00,30-29.6800N,138-44.7900E,164,29.573,34.3481
1013,2013/9/6,1:29:00,30-29.4900N,138-44.8500E,164,29.54,34.3545
1014,2013/9/6,1:30:00,30-29.2800N,138-44.9100E,164,29.547,34.345
1015,2013/9/6,1:31:00,30-29.0900N,138-44.9800E,164,29.558,34.3326
1016,2013/9/6,1:32:00,30-28.8900N,138-45.0400E,164,29.554,34.3241
1017,2013/9/6,1:33:00,30-28.6900N,138-45.1000E,165,29.545,34.3141
1018,2013/9/6,1:34:00,30-28.4800N,138-45.1600E,165,29.547,34.2983
1019,2013/9/6,1:35:00,30-28.2900N,138-45.2300E,164,29.576,34.2858
1020,2013/9/6,1:36:00,30-28.0900N,138-45.2900E,164,29.702,34.2815
1021,2013/9/6,1:37:00,30-27.8800N,138-45.3600E,164,29.67,34.2786
1022,2013/9/6,1:38:00,30-27.6700N,138-45.4300E,164,29.626,34.262
1023,2013/9/6,1:39:00,30-27.4700N,138-45.4900E,163,29.622,34.236
1024,2013/9/6,1:40:00,30-27.2700N,138-45.5600E,164,29.598,34.2241
1025,2013/9/6,1:41:00,30-27.0700N,138-45.6200E,165,29.582,34.213
1026,2013/9/6,1:42:00,30-26.8700N,138-45.6800E,164,29.579,34.1941
1027,2013/9/6,1:43:00,30-26.6700N,138-45.7400E,165,29.563,34.1857
1028,2013/9/6,1:44:00,30-26.4700N,138-45.8000E,164,29.562,34.1821
1029,2013/9/6,1:45:00,30-26.2700N,138-45.8700E,165,29.579,34.1803
1030,2013/9/6,1:46:00,30-26.0700N,138-45.9300E,165,29.586,34.1812
1031,2013/9/6,1:47:00,30-25.8700N,138-45.9900E,165,29.59,34.1823
1032,2013/9/6,1:48:00,30-25.6800N,138-46.0500E,165,29.593,34.1869
1033,2013/9/6,1:49:00,30-25.4800N,138-46.1100E,165,29.587,34.1914
1034,2013/9/6,1:50:00,30-25.2700N,138-46.1700E,165,29.592,34.1931
1035,2013/9/6,1:51:00,30-25.0800N,138-46.2300E,165,29.589,34.1974
1036,2013/9/6,1:52:00,30-24.8800N,138-46.2900E,165,29.584,34.2051
1037,2013/9/6,1:53:00,30-24.6700N,138-46.3500E,166,29.571,34.2092
1038,2013/9/6,1:54:00,30-24.4700N,138-46.4100E,165,29.553,34.2108
1039,2013/9/6,1:55:00,30-24.2700N,138-46.4600E,165,29.575,34.2088
1040,2013/9/6,1:56:00,30-24.0600N,138-46.5300E,166,29.513,34.2086
1041,2013/9/6,1:57:00,30-23.8600N,138-46.5900E,162,29.537,34.2131
1042,2013/9/6,1:58:00,30-23.6600N,138-46.6800E,160,29.555,34.2144
1043,2013/9/6,1:59:00,30-23.4600N,138-46.7700E,156,29.585,34.2158
1044,2013/9/6,2:00:00,30-23.2700N,138-46.8700E,154,29.571,34.2162
1045,2013/9/6,2:01:00,30-23.0900N,138-46.9700E,154,29.483,34.2208
1046,2013/9/6,2:02:00,30-22.9000N,138-47.0800E,154,29.52,34.2221
1047,2013/9/6,2:03:00,30-22.7100N,138-47.1800E,154,29.408,34.2239
1048,2013/9/6,2:04:00,30-22.5300N,138-47.2800E,153,29.366,34.2239
1049,2013/9/6,2:05:00,30-22.3400N,138-47.3900E,154,29.37,34.2221
1050,2013/9/6,2:06:00,30-22.1500N,138-47.4900E,153,29.431,34.2236
1051,2013/9/6,2:07:00,30-21.9700N,138-47.6000E,153,29.447,34.229
1052,2013/9/6,2:08:00,30-21.7800N,138-47.7100E,152,29.423,34.2391
1053,2013/9/6,2:09:00,30-21.6000N,138-47.8100E,153,29.418,34.243
1054,2013/9/6,2:10:00,30-21.4100N,138-47.9200E,153,29.424,34.2449
1055,2013/9/6,2:11:00,30-21.2200N,138-48.0200E,153,29.419,34.248
1056,2013/9/6,2:12:00,30-21.0400N,138-48.1300E,154,29.412,34.2516
1057,2013/9/6,2:13:00,30-20.8500N,138-48.2400E,154,29.427,34.2517
1058,2013/9/6,2:14:00,30-20.6700N,138-48.3400E,154,29.442,34.2527
1059,2013/9/6,2:15:00,30-20.4700N,138-48.4400E,154,29.436,34.2536
1060,2013/9/6,2:16:00,30-20.2900N,138-48.5500E,153,29.424,34.2544
1061,2013/9/6,2:17:00,30-20.1100N,138-48.6500E,153,29.419,34.2543
1062,2013/9/6,2:18:00,30-19.9200N,138-48.7600E,153,29.402,34.2563
1063,2013/9/6,2:19:00,30-19.7400N,138-48.8700E,153,29.376,34.2542
1064,2013/9/6,2:20:00,30-19.5500N,138-48.9800E,153,29.364,34.2455
1065,2013/9/6,2:21:00,30-19.3500N,138-49.0900E,153,29.367,34.2413
1066,2013/9/6,2:22:00,30-19.1700N,138-49.1900E,153,29.404,34.2408
1067,2013/9/6,2:23:00,30-18.9800N,138-49.3000E,153,29.445,34.2416
1068,2013/9/6,2:24:00,30-18.8100N,138-49.4000E,153,29.379,34.2472
1069,2013/9/6,2:25:00,30-18.6100N,138-49.5100E,153,29.338,34.2505
1070,2013/9/6,2:26:00,30-18.4300N,138-49.6200E,153,29.351,34.248
1071,2013/9/6,2:27:00,30-18.2500N,138-49.7300E,152,29.403,34.2484
1072,2013/9/6,2:28:00,30-18.0600N,138-49.8400E,153,29.344,34.2496
1073,2013/9/6,2:29:00,30-17.8800N,138-49.9400E,153,29.256,34.255
1074,2013/9/6,2:30:00,30-17.7000N,138-50.0500E,152,29.431,34.2497
1075,2013/9/6,2:31:00,30-17.5200N,138-50.1600E,152,29.594,34.2471
1076,2013/9/6,2:32:00,30-17.3400N,138-50.2600E,153,29.463,34.2447
1077,2013/9/6,2:33:00,30-17.1600N,138-50.3600E,153,29.471,34.215
1078,2013/9/6,2:34:00,30-16.9800N,138-50.4700E,152,29.493,34.2041
1079,2013/9/6,2:35:00,30-16.8100N,138-50.5700E,152,29.529,34.2004
1080,2013/9/6,2:36:00,30-16.6300N,138-50.6800E,152,29.53,34.1959
1081,2013/9/6,2:37:00,30-16.4600N,138-50.7800E,152,29.53,34.1915
1082,2013/9/6,2:38:00,30-16.2800N,138-50.8900E,153,29.55,34.1852
1083,2013/9/6,2:39:00,30-16.1000N,138-50.9900E,153,29.563,34.18
1084,2013/9/6,2:40:00,30-15.9200N,138-51.0900E,153,29.566,34.1766
1085,2013/9/6,2:41:00,30-15.7500N,138-51.1900E,153,29.558,34.1734
1086,2013/9/6,2:42:00,30-15.5600N,138-51.3000E,153,29.562,34.1705
1087,2013/9/6,2:43:00,30-15.3800N,138-51.4000E,153,29.61,34.1703
1088,2013/9/6,2:44:00,30-15.2000N,138-51.5100E,153,29.629,34.1743
1089,2013/9/6,2:45:00,30-15.0300N,138-51.6100E,153,29.645,34.1831
1090,2013/9/6,2:46:00,30-14.8600N,138-51.7100E,153,29.637,34.1864
1091,2013/9/6,2:47:00,30-14.6800N,138-51.8100E,153,29.665,34.1881
1092,2013/9/6,2:48:00,30-14.4900N,138-51.9200E,153,29.706,34.1905
1093,2013/9/6,2:49:00,30-14.3200N,138-52.0200E,153,29.643,34.1944
1094,2013/9/6,2:50:00,30-14.1400N,138-52.1200E,153,29.662,34.1934
1095,2013/9/6,2:51:00,30-13.9700N,138-52.2200E,153,29.655,34.1936
1096,2013/9/6,2:52:00,30-13.7900N,138-52.3300E,152,29.65,34.1939
1097,2013/9/6,2:53:00,30-13.6000N,138-52.4200E,158,29.67,34.1946
1098,2013/9/6,2:54:00,30-13.4200N,138-52.5000E,161,29.644,34.1953
1099,2013/9/6,2:55:00,30-13.2300N,138-52.5700E,161,29.642,34.1942
1100,2013/9/6,2:56:00,30-13.0400N,138-52.6400E,161,29.658,34.1926
1101,2013/9/6,2:57:00,30-12.8500N,138-52.7200E,161,29.676,34.1912
1102,2013/9/6,2:58:00,30-12.6600N,138-52.7900E,161,29.683,34.1922
1103,2013/9/6,2:59:00,30-12.4800N,138-52.8600E,161,29.693,34.1931
1104,2013/9/6,3:00:00,30-12.2900N,138-52.9300E,161,29.678,34.1943
1105,2013/9/6,3:01:00,30-12.1000N,138-53.0100E,161,29.678,34.1954
1106,2013/9/6,3:02:00,30-11.9100N,138-53.0800E,161,29.666,34.1952
1107,2013/9/6,3:03:00,30-11.7200N,138-53.1500E,161,29.663,34.1949
1108,2013/9/6,3:04:00,30-11.5200N,138-53.2300E,161,29.67,34.1949
1109,2013/9/6,3:05:00,30-11.3300N,138-53.3000E,162,29.668,34.1948
1110,2013/9/6,3:06:00,30-11.1400N,138-53.3700E,163,29.673,34.1932
1111,2013/9/6,3:07:00,30-10.9400N,138-53.4300E,163,29.691,34.1926
1112,2013/9/6,3:08:00,30-10.7400N,138-53.5000E,163,29.701,34.191
1113,2013/9/6,3:09:00,30-10.5500N,138-53.5700E,162,29.741,34.1921
1114,2013/9/6,3:10:00,30-10.3600N,138-53.6400E,163,29.759,34.1926
1115,2013/9/6,3:11:00,30-10.1700N,138-53.7000E,163,29.745,34.193
1116,2013/9/6,3:12:00,30-09.9700N,138-53.7700E,163,29.743,34.1929
1117,2013/9/6,3:13:00,30-09.7800N,138-53.8300E,163,29.725,34.1928
1118,2013/9/6,3:14:00,30-09.5900N,138-53.9000E,164,29.715,34.192
1119,2013/9/6,3:15:00,30-09.3900N,138-53.9600E,164,29.739,34.1917
1120,2013/9/6,3:16:00,30-09.2000N,138-54.0200E,164,29.748,34.1917
1121,2013/9/6,3:17:00,30-09.0100N,138-54.0900E,164,29.73,34.192
1122,2013/9/6,3:18:00,30-08.8200N,138-54.1500E,164,29.723,34.1914
1123,2013/9/6,3:19:00,30-08.6200N,138-54.2100E,164,29.707,34.1904
1124,2013/9/6,3:20:00,30-08.4300N,138-54.2800E,164,29.71,34.1901
1125,2013/9/6,3:21:00,30-08.2300N,138-54.3400E,164,29.705,34.1896
1126,2013/9/6,3:22:00,30-08.0400N,138-54.4000E,164,29.694,34.1881
1127,2013/9/6,3:23:00,30-07.8400N,138-54.4600E,164,29.696,34.1876
1128,2013/9/6,3:24:00,30-07.6500N,138-54.5300E,164,29.69,34.1874
1129,2013/9/6,3:25:00,30-07.4400N,138-54.5900E,164,29.672,34.189
1130,2013/9/6,3:26:00,30-07.2400N,138-54.6600E,164,29.699,34.1916
1131,2013/9/6,3:27:00,30-07.0500N,138-54.7200E,164,29.683,34.1978
1132,2013/9/6,3:28:00,30-06.8500N,138-54.7800E,165,29.657,34.208
1133,2013/9/6,3:29:00,30-06.6500N,138-54.8400E,164,29.661,34.2107
1134,2013/9/6,3:30:00,30-06.4500N,138-54.9000E,165,29.657,34.2087
1135,2013/9/6,3:31:00,30-06.2600N,138-54.9600E,165,29.647,34.2211
1136,2013/9/6,3:32:00,30-06.0600N,138-55.0200E,165,29.646,34.225
1137,2013/9/6,3:33:00,30-05.8600N,138-55.0800E,165,29.634,34.2255
1138,2013/9/6,3:34:00,30-05.6700N,138-55.1400E,165,29.664,34.225
1139,2013/9/6,3:35:00,30-05.4700N,138-55.2000E,164,29.588,34.2268
1140,2013/9/6,3:36:00,30-05.2800N,138-55.2600E,165,29.55,34.2295
1141,2013/9/6,3:37:00,30-05.0600N,138-55.3200E,164,29.633,34.2298
1142,2013/9/6,3:38:00,30-04.8800N,138-55.3800E,164,29.603,34.2348
1143,2013/9/6,3:39:00,30-04.6900N,138-55.4500E,164,29.511,34.2575
1144,2013/9/6,3:40:00,30-04.4900N,138-55.5100E,165,29.482,34.2597
1145,2013/9/6,3:41:00,30-04.3000N,138-55.5700E,165,29.44,34.2623
1146,2013/9/6,3:42:00,30-04.1000N,138-55.6300E,165,29.408,34.2747
1147,2013/9/6,3:43:00,30-03.9000N,138-55.6900E,164,29.466,34.2797
1148,2013/9/6,3:44:00,30-03.7000N,138-55.7600E,162,29.496,34.2819
1149,2013/9/6,3:45:00,30-03.5100N,138-55.8300E,162,29.403,34.2842
1150,2013/9/6,3:46:00,30-03.3000N,138-55.9100E,161,29.34,34.2813
1151,2013/9/6,3:47:00,30-03.1100N,138-55.9800E,162,29.303,34.2801
1152,2013/9/6,3:48:00,30-02.9200N,138-56.0500E,161,29.323,34.2796
1153,2013/9/6,3:49:00,30-02.7200N,138-56.1300E,161,29.348,34.2785
1154,2013/9/6,3:50:00,30-02.5300N,138-56.2000E,162,29.324,34.2769
1155,2013/9/6,3:51:00,30-02.3300N,138-56.2700E,162,29.304,34.277
1156,2013/9/6,3:52:00,30-02.1400N,138-56.3400E,162,29.295,34.278
1157,2013/9/6,3:53:00,30-01.9400N,138-56.4100E,162,29.357,34.2776
1158,2013/9/6,3:54:00,30-01.7500N,138-56.4900E,162,29.291,34.2786
1159,2013/9/6,3:55:00,30-01.5500N,138-56.5600E,162,29.315,34.276
1160,2013/9/6,3:56:00,30-01.3500N,138-56.6300E,163,29.299,34.2742
1161,2013/9/6,3:57:00,30-01.1500N,138-56.7000E,163,29.288,34.2757
1162,2013/9/6,3:58:00,30-00.9600N,138-56.7700E,163,29.298,34.2794
1163,2013/9/6,3:59:00,30-00.7600N,138-56.8300E,162,29.276,34.28
1164,2013/9/6,4:00:00,30-00.5600N,138-56.9000E,163,29.163,34.2769
1165,2013/9/6,4:01:00,30-00.3700N,138-56.9700E,163,29.156,34.274
1166,2013/9/6,4:02:00,30-00.1700N,138-57.0400E,163,29.144,34.2729
1167,2013/9/6,4:03:00,29-59.9700N,138-57.1000E,164,29.117,34.279
1168,2013/9/6,4:04:00,29-59.7800N,138-57.1700E,163,29.166,34.2877
1169,2013/9/6,4:05:00,29-59.5800N,138-57.2400E,163,29.08,34.2936
1170,2013/9/6,4:06:00,29-59.3800N,138-57.3100E,163,29.162,34.3048
1171,2013/9/6,4:07:00,29-59.1900N,138-57.3800E,163,29.085,34.3176
1172,2013/9/6,4:08:00,29-58.9800N,138-57.4500E,163,29.023,34.3226
1173,2013/9/6,4:09:00,29-58.7800N,138-57.5100E,163,29.048,34.3159
1174,2013/9/6,4:10:00,29-58.5900N,138-57.5800E,161,29.076,34.3115
1175,2013/9/6,4:11:00,29-58.3900N,138-57.6600E,161,29.031,34.307
1176,2013/9/6,4:12:00,29-58.2000N,138-57.7300E,161,29.02,34.303
1177,2013/9/6,4:13:00,29-58.0100N,138-57.8100E,160,29.063,34.3015
1178,2013/9/6,4:14:00,29-57.8200N,138-57.8900E,161,29.042,34.3064
1179,2013/9/6,4:15:00,29-57.6300N,138-57.9600E,161,29.052,34.3133
1180,2013/9/6,4:16:00,29-57.4400N,138-58.0400E,160,28.971,34.3353
1181,2013/9/6,4:17:00,29-57.2400N,138-58.1100E,161,28.996,34.3535
1182,2013/9/6,4:18:00,29-57.0500N,138-58.1900E,160,28.966,34.3648
1183,2013/9/6,4:19:00,29-56.8700N,138-58.2700E,159,29.03,34.3831
1184,2013/9/6,4:20:00,29-56.6800N,138-58.3500E,159,29.011,34.4132
1185,2013/9/6,4:21:00,29-56.4900N,138-58.4300E,158,29.047,34.4121
1186,2013/9/6,4:22:00,29-56.3100N,138-58.5200E,157,29.02,34.3959
1187,2013/9/6,4:23:00,29-56.1200N,138-58.6000E,157,29,34.3887
1188,2013/9/6,4:24:00,29-55.9300N,138-58.6900E,157,28.923,34.3896
1189,2013/9/6,4:25:00,29-55.7500N,138-58.7800E,157,28.885,34.3921
1190,2013/9/6,4:26:00,29-55.5600N,138-58.8700E,158,28.851,34.3971
1191,2013/9/6,4:27:00,29-55.3700N,138-58.9600E,158,28.84,34.402
1192,2013/9/6,4:28:00,29-55.1800N,138-59.0400E,158,28.837,34.4067
1193,2013/9/6,4:29:00,29-55.0000N,138-59.1300E,157,28.803,34.4164
1194,2013/9/6,4:30:00,29-54.7900N,138-59.2300E,157,28.831,34.4245
1195,2013/9/6,4:31:00,29-54.6000N,138-59.3100E,158,28.805,34.4317
1196,2013/9/6,4:32:00,29-54.4200N,138-59.4000E,158,28.789,34.4346
1197,2013/9/6,4:33:00,29-54.2300N,138-59.4900E,158,28.814,34.4458
1198,2013/9/6,4:34:00,29-54.0300N,138-59.5800E,158,28.782,34.4577
1199,2013/9/6,4:35:00,29-53.8500N,138-59.6600E,158,28.775,34.4673
1200,2013/9/6,4:36:00,29-53.6600N,138-59.7500E,157,28.778,34.4704
1201,2013/9/6,4:37:00,29-53.4700N,138-59.8400E,158,28.756,34.4708
1202,2013/9/6,4:38:00,29-53.2800N,138-59.9300E,158,28.767,34.4707
1203,2013/9/6,4:39:00,29-53.1000N,139-00.0100E,157,28.794,34.4718
1204,2013/9/6,4:40:00,29-52.9100N,139-00.1000E,158,28.755,34.4711
1205,2013/9/6,4:41:00,29-52.7100N,139-00.1900E,158,28.719,34.4714
1206,2013/9/6,4:42:00,29-52.5200N,139-00.2700E,158,28.755,34.4688
1207,2013/9/6,4:43:00,29-52.3400N,139-00.3600E,157,28.725,34.4709
1208,2013/9/6,4:44:00,29-52.1500N,139-00.4400E,158,28.692,34.4703
1209,2013/9/6,4:45:00,29-51.9600N,139-00.5300E,158,28.704,34.4695
1210,2013/9/6,4:46:00,29-51.7600N,139-00.6200E,159,28.681,34.4676
1211,2013/9/6,4:47:00,29-51.5700N,139-00.7000E,158,28.671,34.4649
1212,2013/9/6,4:48:00,29-51.3800N,139-00.7800E,158,28.678,34.4604
1213,2013/9/6,4:49:00,29-51.1900N,139-00.8700E,158,28.714,34.4574
1214,2013/9/6,4:50:00,29-51.0000N,139-00.9600E,157,28.655,34.4534
1215,2013/9/6,4:51:00,29-50.8000N,139-01.0500E,157,28.655,34.4454
1216,2013/9/6,4:52:00,29-50.6100N,139-01.1400E,157,28.599,34.4383
1217,2013/9/6,4:53:00,29-50.4200N,139-01.2300E,157,28.621,34.4312
1218,2013/9/6,4:54:00,29-50.2300N,139-01.3200E,158,28.642,34.4289
1219,2013/9/6,4:55:00,29-50.0500N,139-01.4000E,158,28.613,34.4238
1220,2013/9/6,4:56:00,29-49.8600N,139-01.4900E,158,28.596,34.4208
1221,2013/9/6,4:57:00,29-49.6700N,139-01.5700E,158,28.621,34.4207
1222,2013/9/6,4:58:00,29-49.4800N,139-01.6600E,158,28.639,34.4207
1223,2013/9/6,4:59:00,29-49.3000N,139-01.7400E,158,28.639,34.4213
1224,2013/9/6,5:00:00,29-49.1100N,139-01.8300E,158,28.649,34.4222
1225,2013/9/6,5:01:00,29-48.9200N,139-01.9200E,158,28.644,34.4225
1226,2013/9/6,5:02:00,29-48.7300N,139-02.0000E,158,28.65,34.4247